Geely Xingzuo 04 zu 07 xing

operational
NORAD ID: 65125 Int'l Des: 2025-170 Owner: GEESP Country: CN Constellation: geesatcom
LEOCIRCULAR

About Geely Xingzuo 04 zu 07 xing

Description loading...

Live Position

Loading 3D Globe...

Upcoming Passes

Altitude History

Altitude vs Time

uPlot chart will show altitude changes over time

Two-Line Element Set

1 65125U 25170G 26062.13076497 .00002701 00000-0 35078-3 0 9993
2 65125 49.9918 305.9246 0018397 7.1751 352.9447 14.83586316 30685
Epoch: Mar 3, 2026 • Age: 14 hours

Current Status

Altitude 639.7 km
Velocity 7.53 km/s
Sub-Earth Point -42.30°S, 163.12°E
Launch Date Aug 8, 2025
Age 0.5 years
Type other

Technical Details

Classification Payload
Mass 130.00 kg
Dry Mass 130.00 kg
Total Mass 130.00 kg
Length 1.00 m
Diameter 0.50 m
Span 2.00 m
Shape Box + 2 pan
Manufacturer GWCG
Bus Type GPS100
Phase Status In Orbit
Owner/State GEESP/CN

Large Constellations

Loading constellations...